Fort Stockton, TX

4:58 AM CDT on August 26, 2016 (GMT -0500)
Fort Stockton-Pecos County

Weather History for KFST - May, 2013

Change the Weather History Date:

Thursday, May 16, 2013

  Actual Average Record
Temperature  
Mean Temperature 82 °F -  
Max Temperature 99 °F 88 °F 102 °F (2000)
Min Temperature 66 °F 61 °F 54 °F (2006)
Cooling Degree Days 17    
Growing Degree Days 32 (Base 50)    
Moisture  
Dew Point 31 °F    
Average Humidity 19    
Maximum Humidity 36    
Minimum Humidity 7    
Precipitation  
Precipitation 0.00 in - - ()
Sea Level Pressure  
Sea Level Pressure 29.70 in    
Wind  
Wind Speed 12 mph (West)    
Max Wind Speed 21 mph    
Max Gust Speed 30 mph    
Visibility 10 miles    
Events      
Averages and records for this station are not official NWS values.
T = Trace of Precipitation, MM = Missing Value Source: NWS Daily Summary

Daily Weather History Graph

Daily Weather History Graph

Search for Another Location

Airport or City:

Trip Planner

Search our weather history database for the weather conditions in past years. The results will help you decide how hot, cold, wet, or windy it might be!

Date:

Astronomy

May. 16, 2013 Rise Set
Actual Time 6:55 AM CDT 8:40 PM CDT
Civil Twilight 6:29 AM CDT 9:07 PM CDT
Nautical Twilight 5:57 AM CDT 9:39 PM CDT
Astronomical Twilight 5:23 AM CDT 10:13 PM CDT
Moon 12:23 PM CDT (5/16) 1:08 AM CDT (5/16)
Length of Visible Light 14h 38m
Length of Day
13h 45m
Waxing Crescent, 36% of the Moon is Illuminated
May 16
Waxing Crescent
May 17
First Quarter
May 24
Full
May 31
Last Quarter
Jun 8
New

Hourly Weather History & Observations

Time (CDT) Temp. Dew Point Humidity Pressure Visibility Wind Dir Wind Speed Gust Speed Precip Events Conditions
12:53 AM 75.9 °F 37.0 °F 24% 29.66 in 10.0 mi SW 15.0 mph - N/A   Clear
1:14 AM 75.2 °F 37.4 °F 25% 29.85 in 10.0 mi NNW 9.2 mph 29.9 mph N/A   Clear
1:53 AM 69.1 °F 41.0 °F 36% 29.69 in 10.0 mi SW 6.9 mph - N/A   Clear
2:53 AM 70.0 °F 39.0 °F 32% 29.67 in 10.0 mi SW 12.7 mph - N/A   Clear
3:53 AM 69.1 °F 39.0 °F 33% 29.67 in 10.0 mi SW 12.7 mph - N/A   Clear
4:53 AM 68.0 °F 39.0 °F 35% 29.68 in 10.0 mi SW 13.8 mph - N/A   Clear
5:53 AM 68.0 °F 36.0 °F 31% 29.69 in 10.0 mi SW 12.7 mph - N/A   Clear
6:53 AM 66.9 °F 36.0 °F 32% 29.71 in 10.0 mi SW 12.7 mph - N/A   Clear
7:53 AM 71.1 °F 35.1 °F 27% 29.72 in 10.0 mi SW 12.7 mph - N/A   Clear
8:53 AM 80.1 °F 35.1 °F 20% 29.73 in 10.0 mi West 9.2 mph - N/A   Clear
9:53 AM 86.0 °F 28.9 °F 13% 29.75 in 10.0 mi WNW 19.6 mph 27.6 mph N/A   Clear
10:53 AM 88.0 °F 28.0 °F 12% 29.76 in 10.0 mi NW 20.7 mph 29.9 mph N/A   Clear
11:53 AM 91.0 °F 26.1 °F 10% 29.76 in 10.0 mi NNW 19.6 mph 26.5 mph N/A   Clear
12:53 PM 93.0 °F 26.1 °F 9% 29.75 in 10.0 mi WNW 16.1 mph 19.6 mph N/A   Clear
1:53 PM 96.1 °F 24.1 °F 8% 29.73 in 10.0 mi NW 11.5 mph 20.7 mph N/A   Clear
2:53 PM 96.1 °F 23.0 °F 7% 29.71 in 10.0 mi NNW 9.2 mph 26.5 mph N/A   Clear
3:53 PM 97.0 °F 21.9 °F 7% 29.68 in 10.0 mi NE 5.8 mph - N/A   Clear
5:53 PM 98.1 °F 23.0 °F 7% 29.64 in 10.0 mi WNW 15.0 mph 21.9 mph N/A   Clear
6:53 PM 96.1 °F 23.0 °F 7% 29.63 in 10.0 mi NW 12.7 mph 23.0 mph N/A   Clear
7:53 PM 93.9 °F 21.9 °F 7% 29.63 in 10.0 mi WNW 11.5 mph 21.9 mph N/A   Clear
8:53 PM 86.0 °F 24.1 °F 10% 29.65 in 10.0 mi West 4.6 mph - N/A   Clear
9:53 PM 80.1 °F 28.9 °F 15% 29.67 in 10.0 mi SW 8.1 mph - N/A   Clear
10:53 PM 77.0 °F 32.0 °F 19% 29.69 in 10.0 mi SW 9.2 mph - N/A   Clear
11:53 PM 75.9 °F 30.9 °F 19% 29.70 in 10.0 mi SW 10.4 mph - N/A   Clear